Terug naar catalogus

CZ-6A DEB

ActiefPO
NORAD 61818·DEBRIS·🇨🇳 China

Gelanceerd Aug 6, 2024 vanaf Taiyuan Satellite Launch Center

Loading…

Volgende Passages (komende 24 uur)

TLE

VersSource: Space-Track

Epoch: Sep 12, 2026, 01:33 UTC

1 61818U 24140ACJ 26255.06498084  .00009884  00000-0  11563-2 0  9991
2 61818  89.1598 273.9740 0088566 184.2613 175.7869 14.82164140105028

Volg CZ-6A DEB in realtime met AllMySat

Download on the App Store